Time,TemperatureF,DewpointF,PressureIn,WindDirection,WindDirectionDegrees,WindSpeedMPH,WindSpeedGustMPH,Humidity,HourlyPrecipIn,Conditions,Clouds,dailyrainin,SoftwareType,DateUTC
2013-01-05 00:00:00,33.7,21.0,29.99,West,270,7.2,9.8,57,0.00,,,0.00,Rainwise IP-100,2013-01-05 05:00:00,
2013-01-05 00:05:00,33.7,21.0,29.99,SW,225,4.7,11.2,57,0.00,,,0.00,Rainwise IP-100,2013-01-05 05:05:00,
2013-01-05 00:10:00,33.8,21.0,29.99,WSW,247,7.0,11.9,57,0.00,,,0.00,Rainwise IP-100,2013-01-05 05:10:00,
2013-01-05 00:15:00,33.8,21.0,30.00,WSW,247,7.7,11.0,57,0.00,,,0.00,Rainwise IP-100,2013-01-05 05:15:00,
2013-01-05 00:20:00,33.8,21.0,30.00,West,270,11.4,12.8,57,0.00,,,0.00,Rainwise IP-100,2013-01-05 05:20:00,
2013-01-05 00:26:00,33.8,21.0,30.00,West,270,12.1,14.7,57,0.00,,,0.00,Rainwise IP-100,2013-01-05 05:26:00,
2013-01-05 00:31:00,33.8,21.0,30.00,WSW,247,7.7,12.8,57,0.00,,,0.00,Rainwise IP-100,2013-01-05 05:31:00,
2013-01-05 00:36:00,33.7,21.0,30.00,WSW,247,8.4,13.1,57,0.00,,,0.00,Rainwise IP-100,2013-01-05 05:36:00,
2013-01-05 00:41:00,33.6,21.0,30.00,West,270,11.7,13.3,57,0.00,,,0.00,Rainwise IP-100,2013-01-05 05:41:00,
2013-01-05 00:43:00,33.7,21.0,30.00,WSW,247,8.2,16.3,57,0.00,,,0.00,Rainwise IP-100,2013-01-05 05:43:00,
2013-01-05 00:48:00,33.7,21.0,30.00,West,270,10.0,12.4,56,0.00,,,0.00,Rainwise IP-100,2013-01-05 05:48:00,
2013-01-05 00:53:00,33.8,21.0,30.00,WSW,247,6.8,15.4,56,0.00,,,0.00,Rainwise IP-100,2013-01-05 05:53:00,
2013-01-05 00:59:00,33.8,21.0,30.00,West,270,7.0,16.3,56,0.00,,,0.00,Rainwise IP-100,2013-01-05 05:59:00,
2013-01-05 01:04:00,33.8,21.0,30.00,WNW,292,7.7,17.0,55,0.00,,,0.00,Rainwise IP-100,2013-01-05 06:04:00,
2013-01-05 01:09:00,33.9,21.0,30.00,West,270,10.7,17.7,55,0.00,,,0.00,Rainwise IP-100,2013-01-05 06:09:00,
2013-01-05 01:14:00,34.0,21.0,30.01,West,270,13.5,16.8,54,0.00,,,0.00,Rainwise IP-100,2013-01-05 06:14:00,
2013-01-05 01:19:00,34.2,21.0,30.01,WNW,292,20.1,20.1,54,0.00,,,0.00,Rainwise IP-100,2013-01-05 06:19:00,
2013-01-05 01:24:00,34.3,21.0,30.01,WNW,292,13.3,21.7,53,0.00,,,0.00,Rainwise IP-100,2013-01-05 06:24:00,
2013-01-05 01:29:00,34.4,21.0,30.01,WNW,292,12.4,16.6,53,0.00,,,0.00,Rainwise IP-100,2013-01-05 06:29:00,
2013-01-05 01:34:00,34.3,21.0,30.01,WNW,292,14.2,23.3,53,0.00,,,0.00,Rainwise IP-100,2013-01-05 06:34:00,
2013-01-05 01:39:00,34.4,18.0,30.01,WNW,292,22.2,22.2,52,0.00,,,0.00,Rainwise IP-100,2013-01-05 06:39:00,
2013-01-05 01:45:00,34.4,18.0,30.01,WNW,292,16.6,25.2,52,0.00,,,0.00,Rainwise IP-100,2013-01-05 06:45:00,
2013-01-05 01:50:00,34.3,21.0,30.02,WNW,292,14.7,18.9,53,0.00,,,0.00,Rainwise IP-100,2013-01-05 06:50:00,
2013-01-05 01:55:00,34.3,21.0,30.02,WNW,292,14.2,18.9,53,0.00,,,0.00,Rainwise IP-100,2013-01-05 06:55:00,
2013-01-05 02:00:00,34.2,21.0,30.01,WNW,292,18.9,21.5,53,0.00,,,0.00,Rainwise IP-100,2013-01-05 07:00:00,
2013-01-05 02:05:00,34.2,18.0,30.02,WNW,292,13.5,20.8,52,0.00,,,0.00,Rainwise IP-100,2013-01-05 07:05:00,
2013-01-05 02:10:00,34.2,18.0,30.03,WNW,292,14.7,22.9,52,0.00,,,0.00,Rainwise IP-100,2013-01-05 07:10:00,
2013-01-05 02:15:00,34.2,21.0,30.02,WNW,292,24.9,25.9,53,0.00,,,0.00,Rainwise IP-100,2013-01-05 07:15:00,
2013-01-05 02:21:00,34.1,18.0,30.03,WNW,292,13.8,27.3,52,0.00,,,0.00,Rainwise IP-100,2013-01-05 07:21:00,
2013-01-05 02:26:00,34.1,18.0,30.04,West,270,9.8,17.5,52,0.00,,,0.00,Rainwise IP-100,2013-01-05 07:26:00,
2013-01-05 02:31:00,34.0,21.0,30.04,WNW,292,10.0,15.4,53,0.00,,,0.00,Rainwise IP-100,2013-01-05 07:31:00,
2013-01-05 02:36:00,33.9,21.0,30.04,WNW,292,7.0,18.4,53,0.00,,,0.00,Rainwise IP-100,2013-01-05 07:36:00,
2013-01-05 02:41:00,33.9,21.0,30.04,West,270,11.7,18.2,53,0.00,,,0.00,Rainwise IP-100,2013-01-05 07:41:00,
2013-01-05 02:46:00,33.8,21.0,30.04,SW,225,11.9,18.7,53,0.00,,,0.00,Rainwise IP-100,2013-01-05 07:46:00,
2013-01-05 02:51:00,33.8,21.0,30.05,WSW,247,6.8,18.2,53,0.00,,,0.00,Rainwise IP-100,2013-01-05 07:51:00,
2013-01-05 02:56:00,33.8,21.0,30.05,WNW,292,12.6,15.2,53,0.00,,,0.00,Rainwise IP-100,2013-01-05 07:56:00,
2013-01-05 03:02:00,33.9,21.0,30.05,NW,315,16.1,19.8,54,0.00,,,0.00,Rainwise IP-100,2013-01-05 08:02:00,
2013-01-05 03:07:00,34.0,21.0,30.05,West,270,14.2,19.8,53,0.00,,,0.00,Rainwise IP-100,2013-01-05 08:07:00,
2013-01-05 03:12:00,34.1,21.0,30.06,West,270,10.0,16.8,53,0.00,,,0.00,Rainwise IP-100,2013-01-05 08:12:00,
2013-01-05 03:17:00,34.1,21.0,30.06,West,270,9.1,18.2,53,0.00,,,0.00,Rainwise IP-100,2013-01-05 08:17:00,
2013-01-05 03:22:00,34.1,21.0,30.06,WNW,292,10.3,19.6,53,0.00,,,0.00,Rainwise IP-100,2013-01-05 08:22:00,
2013-01-05 03:27:00,34.1,21.0,30.06,WSW,247,5.8,23.6,54,0.00,,,0.00,Rainwise IP-100,2013-01-05 08:27:00,
2013-01-05 03:32:00,34.0,21.0,30.06,West,270,11.7,20.1,54,0.00,,,0.00,Rainwise IP-100,2013-01-05 08:32:00,
2013-01-05 03:38:00,34.0,21.0,30.06,West,270,8.4,14.0,54,0.00,,,0.00,Rainwise IP-100,2013-01-05 08:38:00,
2013-01-05 03:43:00,34.0,21.0,30.06,WNW,292,10.3,14.9,54,0.00,,,0.00,Rainwise IP-100,2013-01-05 08:43:00,
2013-01-05 03:48:00,34.0,21.0,30.06,West,270,9.1,14.7,54,0.00,,,0.00,Rainwise IP-100,2013-01-05 08:48:00,
2013-01-05 03:53:00,34.0,21.0,30.06,West,270,7.7,17.7,54,0.00,,,0.00,Rainwise IP-100,2013-01-05 08:53:00,
2013-01-05 03:54:00,34.1,21.0,30.06,WNW,292,11.0,17.7,54,0.00,,,0.00,Rainwise IP-100,2013-01-05 08:54:00,
2013-01-05 03:55:00,34.1,21.0,30.06,West,270,11.7,17.7,54,0.00,,,0.00,Rainwise IP-100,2013-01-05 08:55:00,
2013-01-05 03:56:00,34.1,21.0,30.06,West,270,9.1,17.7,54,0.00,,,0.00,Rainwise IP-100,2013-01-05 08:56:00,
2013-01-05 03:59:00,34.1,21.0,30.06,WSW,247,10.0,13.3,54,0.00,,,0.00,Rainwise IP-100,2013-01-05 08:59:00,
2013-01-05 04:00:00,34.1,21.0,30.06,WSW,247,8.2,13.3,54,0.00,,,0.00,Rainwise IP-100,2013-01-05 09:00:00,
2013-01-05 04:01:00,34.1,21.0,30.06,WSW,247,9.6,13.1,54,0.00,,,0.00,Rainwise IP-100,2013-01-05 09:01:00,
2013-01-05 04:02:00,34.1,21.0,30.06,West,270,10.7,13.1,54,0.00,,,0.00,Rainwise IP-100,2013-01-05 09:02:00,
2013-01-05 04:06:00,34.1,21.0,30.06,West,270,8.4,13.8,54,0.00,,,0.00,Rainwise IP-100,2013-01-05 09:06:00,
2013-01-05 04:07:00,34.1,21.0,30.06,West,270,7.9,14.7,54,0.00,,,0.00,Rainwise IP-100,2013-01-05 09:07:00,
2013-01-05 04:12:00,34.1,21.0,30.06,West,270,10.0,13.1,55,0.00,,,0.00,Rainwise IP-100,2013-01-05 09:12:00,
2013-01-05 04:17:00,34.1,21.0,30.06,WSW,247,9.8,14.0,55,0.00,,,0.00,Rainwise IP-100,2013-01-05 09:17:00,
2013-01-05 04:22:00,34.1,21.0,30.06,WSW,247,11.2,13.1,55,0.00,,,0.00,Rainwise IP-100,2013-01-05 09:22:00,
2013-01-05 04:28:00,34.1,21.0,30.07,WSW,247,8.4,12.4,55,0.00,,,0.00,Rainwise IP-100,2013-01-05 09:28:00,
2013-01-05 04:33:00,34.1,21.0,30.07,West,270,9.3,16.6,55,0.00,,,0.00,Rainwise IP-100,2013-01-05 09:33:00,
2013-01-05 04:38:00,34.2,21.0,30.07,West,270,6.5,13.5,55,0.00,,,0.00,Rainwise IP-100,2013-01-05 09:38:00,
2013-01-05 04:43:00,34.2,21.0,30.07,WSW,247,10.7,11.0,55,0.00,,,0.00,Rainwise IP-100,2013-01-05 09:43:00,
2013-01-05 04:44:00,34.2,21.0,30.07,WNW,292,10.5,12.4,55,0.00,,,0.00,Rainwise IP-100,2013-01-05 09:44:00,
2013-01-05 04:45:00,34.2,21.0,30.07,West,270,10.7,12.4,55,0.00,,,0.00,Rainwise IP-100,2013-01-05 09:45:00,
2013-01-05 04:50:00,34.2,21.0,30.08,WSW,247,11.0,11.0,55,0.00,,,0.00,Rainwise IP-100,2013-01-05 09:50:00,
2013-01-05 04:56:00,34.2,21.0,30.08,SW,225,6.8,15.2,56,0.00,,,0.00,Rainwise IP-100,2013-01-05 09:56:00,
2013-01-05 05:01:00,34.2,21.0,30.08,WSW,247,9.6,14.2,56,0.00,,,0.00,Rainwise IP-100,2013-01-05 10:01:00,
2013-01-05 05:06:00,34.3,21.0,30.08,WSW,247,7.0,14.0,56,0.00,,,0.00,Rainwise IP-100,2013-01-05 10:06:00,
2013-01-05 05:11:00,34.2,21.0,30.08,SW,225,8.2,12.6,56,0.00,,,0.00,Rainwise IP-100,2013-01-05 10:11:00,
2013-01-05 05:16:00,34.1,21.0,30.09,WSW,247,5.1,10.5,56,0.00,,,0.00,Rainwise IP-100,2013-01-05 10:16:00,
2013-01-05 05:21:00,34.0,21.0,30.09,SW,225,8.6,8.6,56,0.00,,,0.00,Rainwise IP-100,2013-01-05 10:21:00,
2013-01-05 05:26:00,33.9,21.0,30.10,SSW,202,5.1,10.5,57,0.00,,,0.00,Rainwise IP-100,2013-01-05 10:26:00,
2013-01-05 05:32:00,33.8,21.0,30.10,SSW,202,7.2,11.4,57,0.00,,,0.00,Rainwise IP-100,2013-01-05 10:32:00,
2013-01-05 05:37:00,33.8,23.0,30.10,SW,225,5.8,10.3,58,0.00,,,0.00,Rainwise IP-100,2013-01-05 10:37:00,
2013-01-05 05:42:00,33.7,23.0,30.11,SSW,202,8.2,10.3,58,0.00,,,0.00,Rainwise IP-100,2013-01-05 10:42:00,
2013-01-05 05:47:00,33.7,23.0,30.11,SSW,202,8.2,11.0,59,0.00,,,0.00,Rainwise IP-100,2013-01-05 10:47:00,
2013-01-05 05:52:00,33.6,23.0,30.11,SSW,202,8.6,10.3,60,0.00,,,0.00,Rainwise IP-100,2013-01-05 10:52:00,
2013-01-05 05:57:00,33.6,23.0,30.11,SSW,202,5.8,10.0,60,0.00,,,0.00,Rainwise IP-100,2013-01-05 10:57:00,
2013-01-05 06:02:00,33.6,23.0,30.11,SSW,202,10.3,12.8,60,0.00,,,0.00,Rainwise IP-100,2013-01-05 11:02:00,
2013-01-05 06:07:00,33.6,23.0,30.12,SW,225,8.9,11.7,60,0.00,,,0.00,Rainwise IP-100,2013-01-05 11:07:00,
2013-01-05 06:12:00,33.6,23.0,30.12,SW,225,6.5,11.4,60,0.00,,,0.00,Rainwise IP-100,2013-01-05 11:12:00,
2013-01-05 06:18:00,33.6,23.0,30.13,SSW,202,6.8,12.6,60,0.00,,,0.00,Rainwise IP-100,2013-01-05 11:18:00,
2013-01-05 06:23:00,33.6,23.0,30.14,SW,225,9.3,9.6,60,0.00,,,0.00,Rainwise IP-100,2013-01-05 11:23:00,
2013-01-05 06:28:00,33.6,23.0,30.14,SW,225,12.1,13.1,60,0.00,,,0.00,Rainwise IP-100,2013-01-05 11:28:00,
2013-01-05 06:33:00,33.6,23.0,30.14,SW,225,10.7,13.5,60,0.00,,,0.00,Rainwise IP-100,2013-01-05 11:33:00,
2013-01-05 06:38:00,33.6,23.0,30.14,SW,225,12.8,13.3,60,0.00,,,0.00,Rainwise IP-100,2013-01-05 11:38:00,
2013-01-05 06:43:00,33.7,23.0,30.14,WSW,247,12.8,16.3,60,0.00,,,0.00,Rainwise IP-100,2013-01-05 11:43:00,
2013-01-05 06:48:00,33.6,23.0,30.14,WSW,247,14.2,14.2,60,0.00,,,0.00,Rainwise IP-100,2013-01-05 11:48:00,
2013-01-05 06:54:00,33.5,23.0,30.14,West,270,13.3,15.2,60,0.00,,,0.00,Rainwise IP-100,2013-01-05 11:54:00,
2013-01-05 06:59:00,33.5,23.0,30.14,WSW,247,12.6,15.4,59,0.00,,,0.00,Rainwise IP-100,2013-01-05 11:59:00,
2013-01-05 07:04:00,33.4,21.0,30.15,West,270,8.9,12.8,59,0.00,,,0.00,Rainwise IP-100,2013-01-05 12:04:00,
2013-01-05 07:09:00,33.3,21.0,30.16,WSW,247,7.0,10.3,60,0.00,,,0.00,Rainwise IP-100,2013-01-05 12:09:00,
2013-01-05 07:14:00,33.2,21.0,30.16,West,270,1.9,9.6,60,0.00,,,0.00,Rainwise IP-100,2013-01-05 12:14:00,
2013-01-05 07:19:00,33.3,21.0,30.16,WSW,247,5.4,9.8,60,0.00,,,0.00,Rainwise IP-100,2013-01-05 12:19:00,
2013-01-05 07:24:00,33.4,21.0,30.17,WSW,247,1.4,7.0,60,0.00,,,0.00,Rainwise IP-100,2013-01-05 12:24:00,
2013-01-05 07:29:00,33.4,21.0,30.17,West,270,4.2,6.3,60,0.00,,,0.00,Rainwise IP-100,2013-01-05 12:29:00,
2013-01-05 07:35:00,33.6,23.0,30.17,West,270,5.8,6.5,60,0.00,,,0.00,Rainwise IP-100,2013-01-05 12:35:00,
2013-01-05 07:40:00,33.7,23.0,30.18,West,270,8.6,10.3,60,0.00,,,0.00,Rainwise IP-100,2013-01-05 12:40:00,
2013-01-05 07:45:00,33.8,23.0,30.18,WSW,247,8.4,12.1,60,0.00,,,0.00,Rainwise IP-100,2013-01-05 12:45:00,
2013-01-05 07:50:00,34.1,23.0,30.18,West,270,11.0,14.9,60,0.00,,,0.00,Rainwise IP-100,2013-01-05 12:50:00,
2013-01-05 07:55:00,34.5,23.0,30.18,WNW,292,11.4,15.4,60,0.00,,,0.00,Rainwise IP-100,2013-01-05 12:55:00,
2013-01-05 08:00:00,34.9,23.0,30.19,West,270,3.7,14.9,59,0.00,,,0.00,Rainwise IP-100,2013-01-05 13:00:00,
2013-01-05 08:05:00,35.3,23.0,30.20,West,270,6.8,13.8,59,0.00,,,0.00,Rainwise IP-100,2013-01-05 13:05:00,
2013-01-05 08:11:00,35.7,23.0,30.19,WNW,292,6.1,9.3,58,0.00,,,0.00,Rainwise IP-100,2013-01-05 13:11:00,
2013-01-05 08:16:00,36.0,23.0,30.19,WSW,247,7.7,14.9,58,0.00,,,0.00,Rainwise IP-100,2013-01-05 13:16:00,
2013-01-05 08:21:00,36.2,23.0,30.20,WNW,292,5.8,16.1,58,0.00,,,0.00,Rainwise IP-100,2013-01-05 13:21:00,
2013-01-05 08:26:00,36.3,23.0,30.21,West,270,8.4,12.1,58,0.00,,,0.00,Rainwise IP-100,2013-01-05 13:26:00,
2013-01-05 08:31:00,36.5,24.0,30.21,WSW,247,6.3,12.6,57,0.00,,,0.00,Rainwise IP-100,2013-01-05 13:31:00,
2013-01-05 08:36:00,36.5,24.0,30.21,West,270,9.6,13.5,57,0.00,,,0.00,Rainwise IP-100,2013-01-05 13:36:00,
2013-01-05 08:41:00,36.6,24.0,30.21,WNW,292,13.8,17.0,57,0.00,,,0.00,Rainwise IP-100,2013-01-05 13:41:00,
2013-01-05 08:46:00,36.7,24.0,30.21,WNW,292,13.5,16.6,57,0.00,,,0.00,Rainwise IP-100,2013-01-05 13:46:00,
2013-01-05 08:51:00,36.7,24.0,30.21,West,270,13.5,17.5,57,0.00,,,0.00,Rainwise IP-100,2013-01-05 13:51:00,
2013-01-05 08:57:00,36.8,23.0,30.21,WNW,292,8.6,18.7,56,0.00,,,0.00,Rainwise IP-100,2013-01-05 13:57:00,
2013-01-05 09:02:00,37.0,23.0,30.21,West,270,16.1,19.8,56,0.00,,,0.00,Rainwise IP-100,2013-01-05 14:02:00,
2013-01-05 09:07:00,37.2,23.0,30.22,WSW,247,11.7,16.1,56,0.00,,,0.00,Rainwise IP-100,2013-01-05 14:07:00,
2013-01-05 09:12:00,37.3,23.0,30.22,WNW,292,9.3,20.3,56,0.00,,,0.00,Rainwise IP-100,2013-01-05 14:12:00,
2013-01-05 09:17:00,37.4,23.0,30.23,WNW,292,9.6,16.3,55,0.00,,,0.00,Rainwise IP-100,2013-01-05 14:17:00,
2013-01-05 09:22:00,37.6,24.0,30.23,WNW,292,9.3,16.8,55,0.00,,,0.00,Rainwise IP-100,2013-01-05 14:22:00,
2013-01-05 09:27:00,37.7,24.0,30.23,WNW,292,14.2,17.3,55,0.00,,,0.00,Rainwise IP-100,2013-01-05 14:27:00,
2013-01-05 09:33:00,37.9,24.0,30.22,WNW,292,14.5,20.3,55,0.00,,,0.00,Rainwise IP-100,2013-01-05 14:33:00,
2013-01-05 09:38:00,38.1,24.0,30.23,West,270,17.5,18.4,55,0.00,,,0.00,Rainwise IP-100,2013-01-05 14:38:00,
2013-01-05 09:43:00,38.2,23.0,30.23,WNW,292,15.6,20.5,54,0.00,,,0.00,Rainwise IP-100,2013-01-05 14:43:00,
2013-01-05 09:48:00,38.3,23.0,30.23,WNW,292,16.1,23.1,54,0.00,,,0.00,Rainwise IP-100,2013-01-05 14:48:00,
2013-01-05 09:53:00,38.3,23.0,30.23,WNW,292,14.9,22.6,54,0.00,,,0.00,Rainwise IP-100,2013-01-05 14:53:00,
2013-01-05 09:58:00,38.3,23.0,30.24,WNW,292,15.6,21.2,53,0.00,,,0.00,Rainwise IP-100,2013-01-05 14:58:00,
2013-01-05 10:03:00,38.5,24.0,30.24,WNW,292,14.2,25.9,53,0.00,,,0.00,Rainwise IP-100,2013-01-05 15:03:00,
2013-01-05 10:08:00,38.6,24.0,30.24,NW,315,20.5,24.7,53,0.00,,,0.00,Rainwise IP-100,2013-01-05 15:08:00,
2013-01-05 10:14:00,38.8,24.0,30.24,West,270,16.8,26.8,53,0.00,,,0.00,Rainwise IP-100,2013-01-05 15:14:00,
2013-01-05 10:19:00,39.0,23.0,30.24,WNW,292,15.2,22.6,52,0.00,,,0.00,Rainwise IP-100,2013-01-05 15:19:00,
2013-01-05 10:24:00,39.2,23.0,30.25,WNW,292,15.2,18.2,52,0.00,,,0.00,Rainwise IP-100,2013-01-05 15:24:00,
2013-01-05 10:29:00,39.3,23.0,30.24,WNW,292,20.8,25.2,52,0.00,,,0.00,Rainwise IP-100,2013-01-05 15:29:00,
2013-01-05 10:34:00,39.3,23.0,30.24,WNW,292,18.7,23.3,52,0.00,,,0.00,Rainwise IP-100,2013-01-05 15:34:00,
2013-01-05 10:39:00,39.3,23.0,30.24,WNW,292,20.3,27.5,52,0.00,,,0.00,Rainwise IP-100,2013-01-05 15:39:00,
2013-01-05 10:44:00,39.3,23.0,30.24,NW,315,22.2,25.2,51,0.00,,,0.00,Rainwise IP-100,2013-01-05 15:44:00,
2013-01-05 10:50:00,39.3,23.0,30.26,NW,315,12.8,28.0,51,0.00,,,0.00,Rainwise IP-100,2013-01-05 15:50:00,
2013-01-05 10:55:00,39.4,23.0,30.25,WNW,292,10.5,23.1,51,0.00,,,0.00,Rainwise IP-100,2013-01-05 15:55:00,
2013-01-05 11:00:00,39.6,24.0,30.24,NW,315,14.0,22.6,51,0.00,,,0.00,Rainwise IP-100,2013-01-05 16:00:00,
2013-01-05 11:05:00,39.5,24.0,30.24,NW,315,20.1,28.2,51,0.00,,,0.00,Rainwise IP-100,2013-01-05 16:05:00,
2013-01-05 11:10:00,39.4,23.0,30.23,WNW,292,25.6,29.4,51,0.00,,,0.00,Rainwise IP-100,2013-01-05 16:10:00,
2013-01-05 11:15:00,39.4,23.0,30.24,WNW,292,21.2,34.5,51,0.00,,,0.00,Rainwise IP-100,2013-01-05 16:15:00,
2013-01-05 11:20:00,39.4,23.0,30.22,WNW,292,18.0,31.0,51,0.00,,,0.00,Rainwise IP-100,2013-01-05 16:20:00,
2013-01-05 11:25:00,39.8,24.0,30.24,WNW,292,18.0,28.9,51,0.00,,,0.00,Rainwise IP-100,2013-01-05 16:25:00,
2013-01-05 11:31:00,40.0,24.0,30.24,WNW,292,13.5,26.1,51,0.00,,,0.00,Rainwise IP-100,2013-01-05 16:31:00,
2013-01-05 11:36:00,40.1,24.0,30.24,WNW,292,26.6,30.3,50,0.00,,,0.00,Rainwise IP-100,2013-01-05 16:36:00,
2013-01-05 11:41:00,40.1,24.0,30.23,NNW,337,20.3,28.0,50,0.00,,,0.00,Rainwise IP-100,2013-01-05 16:41:00,
2013-01-05 11:46:00,40.2,24.0,30.22,WNW,292,21.9,27.7,50,0.00,,,0.00,Rainwise IP-100,2013-01-05 16:46:00,
2013-01-05 11:51:00,40.2,24.0,30.22,WNW,292,25.6,34.0,50,0.00,,,0.00,Rainwise IP-100,2013-01-05 16:51:00,
2013-01-05 11:56:00,40.3,24.0,30.22,NNW,337,17.3,29.4,50,0.00,,,0.00,Rainwise IP-100,2013-01-05 16:56:00,
2013-01-05 12:01:00,40.4,24.0,30.22,NW,315,18.2,27.5,50,0.00,,,0.00,Rainwise IP-100,2013-01-05 17:01:00,
2013-01-05 12:06:00,40.6,24.0,30.22,NNW,337,16.3,27.5,49,0.00,,,0.00,Rainwise IP-100,2013-01-05 17:06:00,
2013-01-05 12:12:00,40.7,24.0,30.23,NNW,337,13.3,23.6,49,0.00,,,0.00,Rainwise IP-100,2013-01-05 17:12:00,
2013-01-05 12:17:00,40.7,24.0,30.22,NNW,337,16.6,29.4,49,0.00,,,0.00,Rainwise IP-100,2013-01-05 17:17:00,
2013-01-05 12:22:00,40.6,23.0,30.22,NNW,337,16.8,24.5,48,0.00,,,0.00,Rainwise IP-100,2013-01-05 17:22:00,
2013-01-05 12:27:00,40.7,23.0,30.21,NNW,337,23.3,24.0,48,0.00,,,0.00,Rainwise IP-100,2013-01-05 17:27:00,
2013-01-05 12:32:00,40.7,23.0,30.21,NNW,337,19.1,25.6,48,0.00,,,0.00,Rainwise IP-100,2013-01-05 17:32:00,
2013-01-05 12:37:00,40.6,23.0,30.21,NNW,337,14.5,22.9,48,0.00,,,0.00,Rainwise IP-100,2013-01-05 17:37:00,
2013-01-05 12:42:00,40.7,23.0,30.20,NNW,337,17.7,27.3,48,0.00,,,0.00,Rainwise IP-100,2013-01-05 17:42:00,
2013-01-05 12:47:00,40.8,23.0,30.21,NNW,337,18.2,26.1,48,0.00,,,0.00,Rainwise IP-100,2013-01-05 17:47:00,
2013-01-05 12:53:00,40.7,23.0,30.20,NNW,337,22.4,24.0,48,0.00,,,0.00,Rainwise IP-100,2013-01-05 17:53:00,
2013-01-05 12:58:00,40.6,23.0,30.21,NW,315,15.6,25.9,48,0.00,,,0.00,Rainwise IP-100,2013-01-05 17:58:00,
2013-01-05 13:03:00,40.6,23.0,30.20,NW,315,17.3,31.2,48,0.00,,,0.00,Rainwise IP-100,2013-01-05 18:03:00,
2013-01-05 13:08:00,40.5,23.0,30.20,WNW,292,21.0,25.4,48,0.00,,,0.00,Rainwise IP-100,2013-01-05 18:08:00,
2013-01-05 13:13:00,40.6,23.0,30.19,WNW,292,18.0,27.5,48,0.00,,,0.00,Rainwise IP-100,2013-01-05 18:13:00,
2013-01-05 13:18:00,40.8,23.0,30.21,NW,315,8.2,26.6,48,0.00,,,0.00,Rainwise IP-100,2013-01-05 18:18:00,
2013-01-05 13:23:00,41.0,23.0,30.21,WNW,292,16.6,22.2,48,0.00,,,0.00,Rainwise IP-100,2013-01-05 18:23:00,
2013-01-05 13:29:00,41.1,23.0,30.21,WNW,292,7.2,20.5,48,0.00,,,0.00,Rainwise IP-100,2013-01-05 18:29:00,
2013-01-05 13:34:00,41.3,23.0,30.22,NNW,337,8.9,17.7,47,0.00,,,0.00,Rainwise IP-100,2013-01-05 18:34:00,
2013-01-05 13:38:00,41.5,24.0,30.22,NW,315,14.0,16.8,47,0.00,,,0.00,Rainwise IP-100,2013-01-05 18:38:00,
2013-01-05 13:43:00,41.5,24.0,30.22,NNW,337,13.1,21.2,47,0.00,,,0.00,Rainwise IP-100,2013-01-05 18:43:00,
2013-01-05 13:48:00,41.5,24.0,30.22,NNW,337,14.7,17.0,47,0.00,,,0.00,Rainwise IP-100,2013-01-05 18:48:00,
2013-01-05 13:53:00,41.6,24.0,30.22,NW,315,14.0,19.8,47,0.00,,,0.00,Rainwise IP-100,2013-01-05 18:53:00,
2013-01-05 13:59:00,41.4,23.0,30.22,WNW,292,12.6,17.5,47,0.00,,,0.00,Rainwise IP-100,2013-01-05 18:59:00,
2013-01-05 14:04:00,41.4,23.0,30.22,WNW,292,11.0,20.5,47,0.00,,,0.00,Rainwise IP-100,2013-01-05 19:04:00,
2013-01-05 14:09:00,41.4,23.0,30.22,NNW,337,11.2,15.9,47,0.00,,,0.00,Rainwise IP-100,2013-01-05 19:09:00,
2013-01-05 14:14:00,41.7,23.0,30.22,WNW,292,11.4,16.8,46,0.00,,,0.00,Rainwise IP-100,2013-01-05 19:14:00,
2013-01-05 14:19:00,41.7,23.0,30.23,WSW,247,9.8,13.8,46,0.00,,,0.00,Rainwise IP-100,2013-01-05 19:19:00,
2013-01-05 14:24:00,41.5,24.0,30.22,NW,315,7.5,16.8,47,0.00,,,0.00,Rainwise IP-100,2013-01-05 19:24:00,
2013-01-05 14:29:00,41.5,24.0,30.22,WNW,292,15.6,16.3,47,0.00,,,0.00,Rainwise IP-100,2013-01-05 19:29:00,
2013-01-05 14:35:00,41.4,23.0,30.22,WNW,292,6.8,16.3,47,0.00,,,0.00,Rainwise IP-100,2013-01-05 19:35:00,
2013-01-05 14:40:00,41.4,23.0,30.23,NW,315,5.6,12.6,47,0.00,,,0.00,Rainwise IP-100,2013-01-05 19:40:00,
2013-01-05 14:45:00,41.6,24.0,30.23,WNW,292,7.5,14.7,47,0.00,,,0.00,Rainwise IP-100,2013-01-05 19:45:00,
2013-01-05 14:50:00,41.5,24.0,30.23,WNW,292,11.0,19.4,47,0.00,,,0.00,Rainwise IP-100,2013-01-05 19:50:00,
2013-01-05 14:55:00,41.2,23.0,30.23,WNW,292,11.9,16.3,47,0.00,,,0.00,Rainwise IP-100,2013-01-05 19:55:00,
2013-01-05 15:00:00,41.1,23.0,30.23,WNW,292,12.4,14.7,47,0.00,,,0.00,Rainwise IP-100,2013-01-05 20:00:00,
2013-01-05 15:05:00,41.2,23.0,30.23,WNW,292,12.4,17.5,47,0.00,,,0.00,Rainwise IP-100,2013-01-05 20:05:00,
2013-01-05 15:10:00,41.1,23.0,30.24,WNW,292,13.1,14.9,47,0.00,,,0.00,Rainwise IP-100,2013-01-05 20:10:00,
2013-01-05 15:16:00,41.1,23.0,30.23,WNW,292,15.4,16.3,47,0.00,,,0.00,Rainwise IP-100,2013-01-05 20:16:00,
2013-01-05 15:21:00,41.2,23.0,30.24,WNW,292,14.7,17.7,47,0.00,,,0.00,Rainwise IP-100,2013-01-05 20:21:00,
2013-01-05 15:26:00,41.2,23.0,30.24,WSW,247,10.5,15.2,47,0.00,,,0.00,Rainwise IP-100,2013-01-05 20:26:00,
2013-01-05 15:31:00,41.2,23.0,30.23,WNW,292,9.1,15.6,47,0.00,,,0.00,Rainwise IP-100,2013-01-05 20:31:00,
2013-01-05 15:36:00,41.1,23.0,30.22,WNW,292,14.5,15.4,47,0.00,,,0.00,Rainwise IP-100,2013-01-05 20:36:00,
2013-01-05 15:41:00,41.1,23.0,30.23,NW,315,11.4,16.6,47,0.00,,,0.00,Rainwise IP-100,2013-01-05 20:41:00,
2013-01-05 15:46:00,41.1,23.0,30.24,WNW,292,10.5,14.5,47,0.00,,,0.00,Rainwise IP-100,2013-01-05 20:46:00,
2013-01-05 15:52:00,41.1,23.0,30.23,WNW,292,10.7,14.0,47,0.00,,,0.00,Rainwise IP-100,2013-01-05 20:52:00,
2013-01-05 15:57:00,41.0,23.0,30.24,WNW,292,10.0,13.3,47,0.00,,,0.00,Rainwise IP-100,2013-01-05 20:57:00,
2013-01-05 16:02:00,41.0,23.0,30.24,NW,315,9.3,14.2,48,0.00,,,0.00,Rainwise IP-100,2013-01-05 21:02:00,
2013-01-05 16:07:00,41.0,23.0,30.24,WNW,292,8.6,14.0,47,0.00,,,0.00,Rainwise IP-100,2013-01-05 21:07:00,
2013-01-05 16:12:00,40.8,23.0,30.24,NW,315,8.4,11.4,47,0.00,,,0.00,Rainwise IP-100,2013-01-05 21:12:00,
2013-01-05 16:17:00,40.6,23.0,30.24,West,270,9.1,10.3,47,0.00,,,0.00,Rainwise IP-100,2013-01-05 21:17:00,
2013-01-05 16:22:00,40.5,23.0,30.24,WNW,292,7.2,11.0,48,0.00,,,0.00,Rainwise IP-100,2013-01-05 21:22:00,
2013-01-05 16:27:00,40.3,23.0,30.25,WNW,292,2.3,8.6,48,0.00,,,0.00,Rainwise IP-100,2013-01-05 21:27:00,
2013-01-05 16:33:00,40.1,23.0,30.25,WNW,292,4.4,5.8,49,0.00,,,0.00,Rainwise IP-100,2013-01-05 21:33:00,
2013-01-05 16:38:00,40.0,23.0,30.25,WNW,292,5.4,6.3,49,0.00,,,0.00,Rainwise IP-100,2013-01-05 21:38:00,
2013-01-05 16:43:00,39.8,23.0,30.24,WNW,292,3.7,5.8,49,0.00,,,0.00,Rainwise IP-100,2013-01-05 21:43:00,
2013-01-05 16:48:00,39.6,24.0,30.25,WNW,292,2.8,4.4,50,0.00,,,0.00,Rainwise IP-100,2013-01-05 21:48:00,
2013-01-05 16:53:00,39.4,23.0,30.24,NW,315,5.8,6.3,50,0.00,,,0.00,Rainwise IP-100,2013-01-05 21:53:00,
2013-01-05 16:58:00,39.3,23.0,30.24,WNW,292,4.9,7.2,50,0.00,,,0.00,Rainwise IP-100,2013-01-05 21:58:00,
2013-01-05 17:03:00,39.2,23.0,30.25,WNW,292,3.3,5.4,50,0.00,,,0.00,Rainwise IP-100,2013-01-05 22:03:00,
2013-01-05 17:09:00,38.8,23.0,30.24,NW,315,3.5,4.4,51,0.00,,,0.00,Rainwise IP-100,2013-01-05 22:09:00,
2013-01-05 17:14:00,38.3,23.0,30.25,WNW,292,4.4,5.8,53,0.00,,,0.00,Rainwise IP-100,2013-01-05 22:14:00,
2013-01-05 17:19:00,38.3,23.0,30.26,WNW,292,2.6,4.7,52,0.00,,,0.00,Rainwise IP-100,2013-01-05 22:19:00,
2013-01-05 17:24:00,38.4,23.0,30.25,WNW,292,3.7,4.4,52,0.00,,,0.00,Rainwise IP-100,2013-01-05 22:24:00,
2013-01-05 17:29:00,38.2,23.0,30.25,WNW,292,4.4,5.4,53,0.00,,,0.00,Rainwise IP-100,2013-01-05 22:29:00,
2013-01-05 17:34:00,37.5,24.0,30.26,NNW,337,3.5,4.7,55,0.00,,,0.00,Rainwise IP-100,2013-01-05 22:34:00,
2013-01-05 17:39:00,36.9,23.0,30.26,NNW,337,0.0,4.2,56,0.00,,,0.00,Rainwise IP-100,2013-01-05 22:39:00,
2013-01-05 17:44:00,36.7,24.0,30.26,NW,315,4.2,5.1,57,0.00,,,0.00,Rainwise IP-100,2013-01-05 22:44:00,
2013-01-05 17:50:00,36.6,24.0,30.26,NW,315,2.1,4.4,58,0.00,,,0.00,Rainwise IP-100,2013-01-05 22:50:00,
2013-01-05 17:55:00,36.3,23.0,30.26,NNW,337,3.7,4.2,58,0.00,,,0.00,Rainwise IP-100,2013-01-05 22:55:00,
2013-01-05 18:00:00,36.1,24.0,30.26,NNW,337,2.1,4.2,60,0.00,,,0.00,Rainwise IP-100,2013-01-05 23:00:00,
2013-01-05 18:05:00,35.5,24.0,30.26,NNW,337,3.0,3.0,63,0.00,,,0.00,Rainwise IP-100,2013-01-05 23:05:00,
2013-01-05 18:10:00,35.0,24.0,30.26,NW,315,4.2,4.2,64,0.00,,,0.00,Rainwise IP-100,2013-01-05 23:10:00,
2013-01-05 18:15:00,34.6,24.0,30.26,NW,315,1.4,5.1,65,0.00,,,0.00,Rainwise IP-100,2013-01-05 23:15:00,
2013-01-05 18:20:00,34.0,24.0,30.26,NW,315,2.6,2.6,67,0.00,,,0.00,Rainwise IP-100,2013-01-05 23:20:00,
2013-01-05 18:26:00,34.1,24.0,30.26,NW,315,3.5,4.4,66,0.00,,,0.00,Rainwise IP-100,2013-01-05 23:26:00,
2013-01-05 18:31:00,34.2,24.0,30.27,NW,315,2.8,3.7,67,0.00,,,0.00,Rainwise IP-100,2013-01-05 23:31:00,
2013-01-05 18:36:00,33.8,26.0,30.27,NW,315,4.7,4.7,68,0.00,,,0.00,Rainwise IP-100,2013-01-05 23:36:00,
2013-01-05 18:41:00,33.7,26.0,30.27,NW,315,2.1,5.4,68,0.00,,,0.00,Rainwise IP-100,2013-01-05 23:41:00,
2013-01-05 18:46:00,33.7,26.0,30.26,NNE,22,3.5,4.2,68,0.00,,,0.00,Rainwise IP-100,2013-01-05 23:46:00,
2013-01-05 18:51:00,33.9,24.0,30.26,NW,315,4.2,4.2,67,0.00,,,0.00,Rainwise IP-100,2013-01-05 23:51:00,
2013-01-05 18:56:00,34.0,24.0,30.27,NW,315,0.0,4.4,66,0.00,,,0.00,Rainwise IP-100,2013-01-05 23:56:00,
2013-01-05 19:02:00,33.6,26.0,30.26,NNW,337,3.5,3.5,68,0.00,,,0.00,Rainwise IP-100,2013-01-06 00:02:00,
2013-01-05 19:07:00,33.2,24.0,30.25,NNW,337,2.6,4.7,68,0.00,,,0.00,Rainwise IP-100,2013-01-06 00:07:00,
2013-01-05 19:12:00,33.1,24.0,30.26,NNW,337,1.4,2.6,68,0.00,,,0.00,Rainwise IP-100,2013-01-06 00:12:00,
2013-01-05 19:17:00,32.7,24.0,30.27,WNW,292,4.2,5.6,69,0.00,,,0.00,Rainwise IP-100,2013-01-06 00:17:00,
2013-01-05 19:22:00,32.4,24.0,30.27,NW,315,0.0,6.1,71,0.00,,,0.00,Rainwise IP-100,2013-01-06 00:22:00,
2013-01-05 19:27:00,32.4,24.0,30.26,NW,315,2.3,3.0,71,0.00,,,0.00,Rainwise IP-100,2013-01-06 00:27:00,
2013-01-05 19:32:00,32.7,24.0,30.26,NW,315,3.7,4.2,69,0.00,,,0.00,Rainwise IP-100,2013-01-06 00:32:00,
2013-01-05 19:37:00,32.4,24.0,30.26,NNW,337,3.0,4.0,70,0.00,,,0.00,Rainwise IP-100,2013-01-06 00:37:00,
2013-01-05 19:43:00,32.0,24.0,30.26,NNW,337,3.7,3.7,70,0.00,,,0.00,Rainwise IP-100,2013-01-06 00:43:00,
2013-01-05 19:48:00,31.8,24.0,30.26,NNW,337,0.0,3.7,71,0.00,,,0.00,Rainwise IP-100,2013-01-06 00:48:00,
2013-01-05 19:53:00,31.5,24.0,30.26,NNW,337,0.0,1.2,73,0.00,,,0.00,Rainwise IP-100,2013-01-06 00:53:00,
2013-01-05 19:58:00,31.3,23.0,30.26,NW,315,2.3,2.3,73,0.00,,,0.00,Rainwise IP-100,2013-01-06 00:58:00,
2013-01-05 20:03:00,31.2,24.0,30.26,NW,315,2.6,2.8,74,0.00,,,0.00,Rainwise IP-100,2013-01-06 01:03:00,
2013-01-05 20:08:00,31.3,24.0,30.25,NW,315,3.3,3.7,74,0.00,,,0.00,Rainwise IP-100,2013-01-06 01:08:00,
2013-01-05 20:13:00,31.3,24.0,30.25,NNW,337,0.0,3.7,74,0.00,,,0.00,Rainwise IP-100,2013-01-06 01:13:00,
2013-01-05 20:19:00,31.2,24.0,30.24,NNW,337,2.8,3.0,75,0.00,,,0.00,Rainwise IP-100,2013-01-06 01:19:00,
2013-01-05 20:24:00,31.1,24.0,30.24,NNW,337,3.0,3.5,75,0.00,,,0.00,Rainwise IP-100,2013-01-06 01:24:00,
2013-01-05 20:29:00,30.7,24.0,30.24,NNW,337,2.8,3.5,75,0.00,,,0.00,Rainwise IP-100,2013-01-06 01:29:00,
2013-01-05 20:34:00,30.5,24.0,30.24,NNW,337,3.3,4.2,75,0.00,,,0.00,Rainwise IP-100,2013-01-06 01:34:00,
2013-01-05 20:39:00,30.5,24.0,30.25,NNW,337,3.3,4.4,76,0.00,,,0.00,Rainwise IP-100,2013-01-06 01:39:00,
2013-01-05 20:44:00,30.5,24.0,30.24,NNW,337,4.2,5.1,76,0.00,,,0.00,Rainwise IP-100,2013-01-06 01:44:00,
2013-01-05 20:49:00,30.4,24.0,30.24,NNW,337,3.3,5.6,76,0.00,,,0.00,Rainwise IP-100,2013-01-06 01:49:00,
2013-01-05 20:54:00,30.4,24.0,30.24,NNW,337,4.7,4.7,75,0.00,,,0.00,Rainwise IP-100,2013-01-06 01:54:00,
2013-01-05 21:00:00,30.4,24.0,30.24,NW,315,3.7,5.1,75,0.00,,,0.00,Rainwise IP-100,2013-01-06 02:00:00,
2013-01-05 21:05:00,30.1,24.0,30.24,NNW,337,2.3,3.7,77,0.00,,,0.00,Rainwise IP-100,2013-01-06 02:05:00,
2013-01-05 21:10:00,29.9,24.0,30.23,NNW,337,5.1,6.5,78,0.00,,,0.00,Rainwise IP-100,2013-01-06 02:10:00,
2013-01-05 21:15:00,29.9,24.0,30.23,NNW,337,3.3,5.6,77,0.00,,,0.00,Rainwise IP-100,2013-01-06 02:15:00,
2013-01-05 21:20:00,29.7,24.0,30.24,NNW,337,3.7,5.1,78,0.00,,,0.00,Rainwise IP-100,2013-01-06 02:20:00,
2013-01-05 21:25:00,29.8,24.0,30.24,NNW,337,2.8,4.4,78,0.00,,,0.00,Rainwise IP-100,2013-01-06 02:25:00,
2013-01-05 21:30:00,29.9,24.0,30.24,NNW,337,1.6,4.0,78,0.00,,,0.00,Rainwise IP-100,2013-01-06 02:30:00,
2013-01-05 21:36:00,29.9,24.0,30.24,WNW,292,2.6,3.7,78,0.00,,,0.00,Rainwise IP-100,2013-01-06 02:36:00,
2013-01-05 21:41:00,30.0,24.0,30.23,NNW,337,3.0,3.3,78,0.00,,,0.00,Rainwise IP-100,2013-01-06 02:41:00,
2013-01-05 21:46:00,29.9,24.0,30.24,NW,315,6.1,6.3,78,0.00,,,0.00,Rainwise IP-100,2013-01-06 02:46:00,
2013-01-05 21:51:00,29.8,24.0,30.24,NW,315,3.0,6.3,78,0.00,,,0.00,Rainwise IP-100,2013-01-06 02:51:00,
2013-01-05 21:56:00,29.7,24.0,30.24,NNW,337,3.0,4.0,78,0.00,,,0.00,Rainwise IP-100,2013-01-06 02:56:00,
2013-01-05 22:01:00,29.7,24.0,30.23,NNW,337,2.8,4.7,78,0.00,,,0.00,Rainwise IP-100,2013-01-06 03:01:00,
2013-01-05 22:06:00,29.6,24.0,30.23,NNW,337,3.3,3.7,78,0.00,,,0.00,Rainwise IP-100,2013-01-06 03:06:00,
2013-01-05 22:11:00,29.5,24.0,30.22,NNW,337,4.4,4.7,78,0.00,,,0.00,Rainwise IP-100,2013-01-06 03:11:00,
2013-01-05 22:17:00,29.5,24.0,30.23,NNW,337,5.1,5.1,78,0.00,,,0.00,Rainwise IP-100,2013-01-06 03:17:00,
2013-01-05 22:22:00,29.7,24.0,30.23,NNW,337,4.0,5.4,79,0.00,,,0.00,Rainwise IP-100,2013-01-06 03:22:00,
2013-01-05 22:27:00,29.8,24.0,30.23,NNW,337,3.5,4.7,78,0.00,,,0.00,Rainwise IP-100,2013-01-06 03:27:00,
2013-01-05 22:32:00,29.9,24.0,30.23,NNW,337,4.4,5.6,78,0.00,,,0.00,Rainwise IP-100,2013-01-06 03:32:00,
2013-01-05 22:37:00,30.0,24.0,30.23,North,360,3.0,5.8,78,0.00,,,0.00,Rainwise IP-100,2013-01-06 03:37:00,
2013-01-05 22:42:00,30.1,24.0,30.22,NNW,337,3.0,4.2,78,0.00,,,0.00,Rainwise IP-100,2013-01-06 03:42:00,
2013-01-05 22:47:00,30.3,24.0,30.22,NNW,337,2.3,4.2,78,0.00,,,0.00,Rainwise IP-100,2013-01-06 03:47:00,
2013-01-05 22:53:00,30.4,24.0,30.21,NNW,337,1.9,4.0,78,0.00,,,0.00,Rainwise IP-100,2013-01-06 03:53:00,
2013-01-05 22:58:00,30.4,24.0,30.21,NNW,337,1.2,3.3,78,0.00,,,0.00,Rainwise IP-100,2013-01-06 03:58:00,
2013-01-05 23:03:00,30.4,24.0,30.21,NNW,337,3.0,3.0,79,0.00,,,0.00,Rainwise IP-100,2013-01-06 04:03:00,
2013-01-05 23:08:00,30.5,26.0,30.22,NW,315,3.5,3.7,80,0.00,,,0.00,Rainwise IP-100,2013-01-06 04:08:00,
2013-01-05 23:13:00,30.6,26.0,30.22,NNW,337,3.0,4.7,80,0.00,,,0.00,Rainwise IP-100,2013-01-06 04:13:00,
2013-01-05 23:18:00,30.7,24.0,30.21,NNW,337,3.0,5.1,79,0.00,,,0.00,Rainwise IP-100,2013-01-06 04:18:00,
2013-01-05 23:23:00,30.8,24.0,30.22,NNW,337,1.9,4.2,79,0.00,,,0.00,Rainwise IP-100,2013-01-06 04:23:00,
2013-01-05 23:28:00,31.0,24.0,30.22,NNW,337,0.0,2.8,78,0.00,,,0.00,Rainwise IP-100,2013-01-06 04:28:00,
2013-01-05 23:34:00,31.3,24.0,30.21,East,90,0.0,3.3,79,0.00,,,0.00,Rainwise IP-100,2013-01-06 04:34:00,
2013-01-05 23:39:00,31.2,26.0,30.21,East,90,0.0,1.4,80,0.00,,,0.00,Rainwise IP-100,2013-01-06 04:39:00,
2013-01-05 23:44:00,31.2,26.0,30.19,SSE,157,0.0,2.6,80,0.00,,,0.00,Rainwise IP-100,2013-01-06 04:44:00,
2013-01-05 23:49:00,31.4,26.0,30.20,SSE,157,0.0,1.2,81,0.00,,,0.00,Rainwise IP-100,2013-01-06 04:49:00,
2013-01-05 23:54:00,31.5,28.0,30.19,SSE,157,0.0,0.0,81,0.00,,,0.00,Rainwise IP-100,2013-01-06 04:54:00,
2013-01-05 23:59:00,31.4,26.0,30.20,NW,315,4.0,4.0,81,0.00,,,0.00,Rainwise IP-100,2013-01-06 04:59:00,